Terminal Aerodrome Forecast
Issued by NWS Greer, SC

Home | Current Version | Previous Version | Text Only | Print | Product List | Glossary On
Versions: 1 2 3 4 5 6 7 8 9 10 11 12 13 14 15 16 17 18 19 20 21 22 23 24 25 26 27 28 29 30 31 32 33 34 35 36 37 38 39 40 41 42 43 44
000
FTUS42 KGSP 222300
TAFCLT
TAF
KCLT 222336Z 2300/2324 25004KT P6SM VCSH SCT060 BKN250
     FM230400 33004KT P6SM SCT130 BKN250
     FM231300 01005KT P6SM SCT130 BKN250
     FM231800 01005KT P6SM SCT060 BKN130 PROB30 2318/2324 4SM TSRA
      BKN040CB=

USA.gov is the U.S. government's official web portal to all federal, state and local government web resources and services.